SP3ZBZ-13 Weather Reports


time (UTC)temp
C
wind
direction
speed
KPH
gust
KPH
rain 1hr
cm
rain 24hr
cm
rain mn
cm
humidity
%
barometer
mb
20260504120219 21 234 12.9 22.5 0.00 0.00 0.00 47 1007.5
20260504110214 22 246 16.1 25.7 0.00 0.00 0.00 47 1007.5
20260504100211 21 223 17.7 29.0 0.00 0.00 0.00 48 1008.0
20260504081703 20 258 9.7 17.7 0.00 0.00 0.00 50 1007.4
20260504080202 20 228 8.0 12.9 0.00 0.00 0.00 48 1007.2
20260504070158 19 270 4.8 9.7 0.00 0.00 0.00 49 1007.0
20260504060154 16 286 6.4 14.5 0.00 0.00 0.00 53 1007.2
20260504050151 15 255 1.6 3.2 0.00 0.00 0.00 55 1006.8
20260504044650 15 228 0.0 4.8 0.00 0.00 0.00 55 1006.5
20260504043149 15 234 0.0 3.2 0.00 0.00 0.00 53 1006.7
20260504041648 15 234 3.2 12.9 0.00 0.00 0.00 52 1006.4
20260504040147 15 210 3.2 6.4 0.00 0.00 0.00 53 1006.4
20260504034646 14 108 1.6 6.4 0.00 0.00 0.00 53 1006.3
20260504033145 14 120 0.0 4.8 0.00 0.00 0.00 54 1006.3
20260504031644 14 168 0.0 3.2 0.00 0.00 0.00 53 1006.2
20260504030143 15 326 3.2 6.4 0.00 0.00 0.00 52 1006.1
20260504024642 15 240 4.8 14.5 0.00 0.00 0.00 50 1006.2
20260504023141 15 228 3.2 11.3 0.00 0.00 0.00 50 1006.0
20260504021641 15 343 3.2 9.7 0.00 0.00 0.00 51 1006.0
20260504020139 15 348 3.2 9.7 0.00 0.00 0.00 49 1005.9
20260504014638 15 198 3.2 9.7 0.00 0.00 0.00 50 1006.0
20260504013138 16 164 3.2 6.4 0.00 0.00 0.00 48 1005.9
20260504011637 16 120 3.2 9.7 0.00 0.00 0.00 48 1006.0
20260504010135 15 252 1.6 6.4 0.00 0.00 0.00 50 1006.1
20260504004634 16 180 1.6 4.8 0.00 0.00 0.00 49 1006.1
20260504003134 15 354 0.0 3.2 0.00 0.00 0.00 50 1006.0
20260504001633 15 180 0.0 6.4 0.00 0.00 0.00 49 1006.0
20260504000131 16 246 1.6 3.2 0.00 0.00 0.00 47 1006.1
20260503234631 16 292 0.0 3.2 0.00 0.00 0.00 46 1006.0
20260503233130 16 352 1.6 4.8 0.00 0.00 0.00 44 1006.0
20260503231629 17 94 1.6 6.4 0.00 0.00 0.00 43 1006.0
20260503230128 17 318 1.6 6.4 0.00 0.00 0.00 43 1006.0
20260503224627 17 60 3.2 6.4 0.00 0.00 0.00 42 1006.0
20260503223126 17 108 3.2 8.0 0.00 0.00 0.00 41 1005.9
20260503221625 18 162 3.2 6.4 0.00 0.00 0.00 39 1006.0
20260503220124 18 222 4.8 8.0 0.00 0.00 0.00 37 1006.0
20260503214623 19 162 4.8 9.7 0.00 0.00 0.00 35 1006.0
20260503213122 19 172 4.8 6.4 0.00 0.00 0.00 35 1006.1
20260503211621 19 191 3.2 4.8 0.00 0.00 0.00 34 1006.2
20260503210120 19 173 3.2 4.8 0.00 0.00 0.00 33 1006.3
20260503204619 20 180 3.2 4.8 0.00 0.00 0.00 32 1006.4
20260503203118 20 178 3.2 4.8 0.00 0.00 0.00 32 1006.4
20260503201617 20 207 3.2 4.8 0.00 0.00 0.00 31 1006.5
20260503200116 21 180 3.2 4.8 0.00 0.00 0.00 31 1006.5
20260503194615 21 178 3.2 4.8 0.00 0.00 0.00 31 1006.6
20260503193114 21 185 3.2 4.8 0.00 0.00 0.00 31 1006.6
20260503191613 21 183 3.2 4.8 0.00 0.00 0.00 31 1006.6
20260503190113 22 174 3.2 4.8 0.00 0.00 0.00 32 1006.6
20260503184611 22 184 3.2 3.2 0.00 0.00 0.00 32 1006.6
20260503183110 23 168 3.2 4.8 0.00 0.00 0.00 30 1006.4
20260503181610 23 172 3.2 3.2 0.00 0.00 0.00 29 1006.3
20260503180109 25 186 4.8 8.0 0.00 0.00 0.00 27 1006.2
20260503174608 26 185 4.8 14.5 0.00 0.00 0.00 25 1006.0
20260503173107 26 176 4.8 8.0 0.00 0.00 0.00 25 1006.1
20260503171606 26 197 4.8 8.0 0.00 0.00 0.00 26 1006.0
20260503170105 27 147 4.8 11.3 0.00 0.00 0.00 24 1006.1